^^
Saratoga-Weather Station Historical Data
Daily Summary for September 18, 2020 Units:  English    Metric   Both
Daily Weekly Monthly Yearly Custom
  High: Low: Average:
Temperature: 73.2 °F 45.3 °F 61.5 °F
Dew Point: 53.1 °F 41.7 °F 47.1 °F
Humidity: 88% 37% 62%
Wind Speed: 12.1mph 0mph 2.4mph
Wind Gust: 12mph - -
Wind- - WSW
Pressure: 30.2 in 30.2 in -
Precipitation: 0 in    
Historical Graphs
 
 
Tabular Data for September 18, 2020
Time Temperature Dew Point Pressure Wind Wind Speed Wind Gust Humidity Rainfall Rate (Hourly) solar
00:01 54.1 °F 44.6 °F 30.2 in WNW 0.9 mph 1 mph 70% 0 in 0 W/m2
00:06 54.1 °F 45 °F 30.2 in Calm   1 mph 71% 0 in 0 W/m2
00:11 54 °F 44.8 °F 30.2 in Calm     71% 0 in 0 W/m2
00:17 54 °F 44.8 °F 30.2 in Calm     71% 0 in 0 W/m2
00:22 53.8 °F 44.6 °F 30.2 in Calm     71% 0 in 0 W/m2
00:27 53.8 °F 44.6 °F 30.2 in Calm     71% 0 in 0 W/m2
00:32 53.4 °F 44.2 °F 30.2 in Calm     71% 0 in 0 W/m2
00:37 53.4 °F 44.2 °F 30.2 in Calm     71% 0 in 0 W/m2
00:42 53.2 °F 44.1 °F 30.2 in Calm     71% 0 in 0 W/m2
00:47 53.1 °F 44.2 °F 30.2 in Calm     72% 0 in 0 W/m2
00:52 53.1 °F 44.2 °F 30.2 in Calm     72% 0 in 0 W/m2
00:57 52.9 °F 44.1 °F 30.2 in Calm   1 mph 72% 0 in 0 W/m2
01:02 52.5 °F 44.1 °F 30.2 in Calm     73% 0 in 0 W/m2
01:07 52.3 °F 43.9 °F 30.2 in Calm     73% 0 in 0 W/m2
01:12 52.2 °F 44.1 °F 30.2 in Calm     74% 0 in 0 W/m2
01:17 52.2 °F 44.1 °F 30.2 in Calm     74% 0 in 0 W/m2
01:22 52 °F 44.2 °F 30.2 in Calm     75% 0 in 0 W/m2
01:27 51.6 °F 43.9 °F 30.2 in Calm     75% 0 in 0 W/m2
01:32 51.4 °F 44.1 °F 30.2 in Calm     76% 0 in 0 W/m2
01:37 51.3 °F 44.2 °F 30.2 in Calm   1 mph 77% 0 in 0 W/m2
01:42 51.1 °F 44.4 °F 30.2 in WNW 0.9 mph 1 mph 78% 0 in 0 W/m2
01:47 50.9 °F 44.2 °F 30.2 in Calm   1 mph 78% 0 in 0 W/m2
01:52 50.7 °F 44.1 °F 30.2 in Calm     78% 0 in 0 W/m2
01:57 50.5 °F 43.9 °F 30.2 in WNW 0.9 mph 1 mph 78% 0 in 0 W/m2
02:02 50.4 °F 44.1 °F 30.2 in Calm   1 mph 79% 0 in 0 W/m2
02:07 50.4 °F 44.1 °F 30.2 in Calm     79% 0 in 0 W/m2
02:12 50.2 °F 43.9 °F 30.2 in Calm     79% 0 in 0 W/m2
02:17 49.8 °F 43.9 °F 30.2 in Calm   1 mph 80% 0 in 0 W/m2
02:22 49.6 °F 43.7 °F 30.2 in Calm   1 mph 80% 0 in 0 W/m2
02:27 49.5 °F 43.9 °F 30.2 in Calm     81% 0 in 0 W/m2
02:32 49.5 °F 43.9 °F 30.2 in WNW 0.9 mph 1 mph 81% 0 in 0 W/m2
02:37 49.3 °F 43.7 °F 30.2 in Calm     81% 0 in 0 W/m2
02:42 49.3 °F 43.7 °F 30.2 in Calm   1 mph 81% 0 in 0 W/m2
02:47 49.1 °F 43.5 °F 30.2 in Calm     81% 0 in 0 W/m2
02:52 48.9 °F 43.3 °F 30.2 in Calm   1 mph 81% 0 in 0 W/m2
02:57 48.9 °F 43.3 °F 30.2 in Calm     81% 0 in 0 W/m2
03:02 48.9 °F 43.7 °F 30.2 in Calm   2 mph 82% 0 in 0 W/m2
03:07 48.7 °F 43.5 °F 30.2 in Calm     82% 0 in 0 W/m2
03:12 48.7 °F 43.5 °F 30.2 in Calm   2 mph 82% 0 in 0 W/m2
03:17 48.6 °F 43.3 °F 30.2 in Calm     82% 0 in 0 W/m2
03:22 48.6 °F 43.3 °F 30.2 in Calm   2 mph 82% 0 in 0 W/m2
03:27 48.4 °F 43.2 °F 30.2 in Calm   1 mph 82% 0 in 0 W/m2
03:32 48.2 °F 43 °F 30.2 in Calm     82% 0 in 0 W/m2
03:37 48 °F 43.2 °F 30.2 in Calm     83% 0 in 0 W/m2
03:42 48 °F 43.2 °F 30.2 in Calm     83% 0 in 0 W/m2
03:47 47.8 °F 43 °F 30.2 in Calm     83% 0 in 0 W/m2
03:52 47.8 °F 43 °F 30.2 in Calm     83% 0 in 0 W/m2
03:58 47.8 °F 43 °F 30.2 in Calm   1 mph 83% 0 in 0 W/m2
04:03 47.7 °F 42.8 °F 30.2 in Calm     83% 0 in 0 W/m2
04:08 47.7 °F 42.8 °F 30.2 in Calm     83% 0 in 0 W/m2
04:13 47.7 °F 42.8 °F 30.2 in Calm     83% 0 in 0 W/m2
04:18 47.7 °F 42.8 °F 30.2 in Calm     83% 0 in 0 W/m2
04:23 47.5 °F 42.6 °F 30.2 in Calm     83% 0 in 0 W/m2
04:28 47.3 °F 42.4 °F 30.2 in Calm     83% 0 in 0 W/m2
04:33 47.3 °F 42.8 °F 30.2 in Calm     84% 0 in 0 W/m2
04:38 47.1 °F 42.6 °F 30.2 in Calm   1 mph 84% 0 in 0 W/m2
04:43 47.1 °F 42.6 °F 30.2 in Calm     84% 0 in 0 W/m2
04:48 46.9 °F 42.4 °F 30.2 in Calm   1 mph 84% 0 in 0 W/m2
04:53 46.9 °F 42.4 °F 30.2 in Calm   1 mph 84% 0 in 0 W/m2
04:58 46.8 °F 42.3 °F 30.2 in Calm     84% 0 in 0 W/m2
05:03 46.6 °F 42.1 °F 30.2 in Calm   1 mph 84% 0 in 0 W/m2
05:08 46.6 °F 42.3 °F 30.2 in Calm     85% 0 in 0 W/m2
05:13 46.4 °F 42.1 °F 30.2 in Calm     85% 0 in 0 W/m2
05:18 46.2 °F 41.9 °F 30.2 in Calm     85% 0 in 0 W/m2
05:23 46 °F 42.1 °F 30.2 in Calm     86% 0 in 0 W/m2
05:28 46 °F 42.1 °F 30.2 in Calm     86% 0 in 0 W/m2
05:33 46 °F 42.1 °F 30.2 in Calm     86% 0 in 0 W/m2
05:38 45.9 °F 41.9 °F 30.2 in Calm     86% 0 in 0 W/m2
05:43 45.7 °F 41.7 °F 30.2 in Calm     86% 0 in 0 W/m2
05:48 45.7 °F 41.7 °F 30.2 in Calm     86% 0 in 0 W/m2
05:53 45.5 °F 41.9 °F 30.2 in Calm     87% 0 in 5 W/m2
05:58 45.5 °F 41.9 °F 30.2 in Calm     87% 0 in 7 W/m2
06:03 45.3 °F 41.7 °F 30.2 in Calm     87% 0 in 9 W/m2
06:08 45.3 °F 41.9 °F 30.2 in Calm     88% 0 in 11 W/m2
06:13 45.5 °F 42.1 °F 30.2 in Calm     88% 0 in 12 W/m2
06:18 45.5 °F 42.1 °F 30.2 in Calm     88% 0 in 14 W/m2
06:23 45.7 °F 42.3 °F 30.2 in Calm     88% 0 in 16 W/m2
06:28 45.7 °F 42.3 °F 30.2 in Calm     88% 0 in 18 W/m2
06:33 45.7 °F 42.3 °F 30.2 in Calm     88% 0 in 19 W/m2
06:38 45.9 °F 42.4 °F 30.2 in Calm     88% 0 in 21 W/m2
06:43 46 °F 42.6 °F 30.2 in Calm     88% 0 in 21 W/m2
06:48 46.2 °F 42.8 °F 30.2 in Calm     88% 0 in 25 W/m2
06:53 46.2 °F 42.6 °F 30.2 in Calm     87% 0 in 26 W/m2
06:58 46.6 °F 43 °F 30.2 in Calm     87% 0 in 26 W/m2
07:03 46.6 °F 42.6 °F 30.2 in Calm     86% 0 in 28 W/m2
07:08 46.8 °F 42.8 °F 30.2 in Calm     86% 0 in 28 W/m2
07:13 46.9 °F 43 °F 30.2 in Calm     86% 0 in 30 W/m2
07:18 47.1 °F 43.2 °F 30.2 in Calm     86% 0 in 30 W/m2
07:24 47.5 °F 43.5 °F 30.2 in Calm   1 mph 86% 0 in 32 W/m2
07:29 48 °F 44.1 °F 30.2 in Calm   1 mph 86% 0 in 32 W/m2
07:34 48.6 °F 44.2 °F 30.2 in NE 2 mph 2 mph 85% 0 in 33 W/m2
07:39 49.1 °F 44.4 °F 30.2 in ENE 0.9 mph 2 mph 84% 0 in 33 W/m2
07:44 49.5 °F 44.6 °F 30.2 in Calm   2 mph 83% 0 in 70 W/m2
07:49 49.8 °F 44.6 °F 30.2 in Calm     82% 0 in 239 W/m2
07:54 50.4 °F 45.1 °F 30.2 in Calm   2 mph 82% 0 in 257 W/m2
07:59 51.3 °F 45.7 °F 30.2 in Calm     81% 0 in 272 W/m2
08:04 52.3 °F 46 °F 30.2 in NE 0.9 mph 1 mph 79% 0 in 285 W/m2
08:09 53.1 °F 46 °F 30.2 in Calm   1 mph 77% 0 in 299 W/m2
08:14 53.6 °F 46.2 °F 30.2 in Calm     76% 0 in 311 W/m2
08:19 54.9 °F 47.1 °F 30.2 in NE 0.9 mph 2 mph 75% 0 in 323 W/m2
08:24 55.8 °F 46.9 °F 30.2 in NE 2.9 mph 3 mph 72% 0 in 339 W/m2
08:29 56.1 °F 47.3 °F 30.2 in ENE 0.9 mph 2 mph 72% 0 in 352 W/m2
08:34 56.3 °F 46.9 °F 30.2 in NE 4 mph 4 mph 71% 0 in 364 W/m2
08:39 56.1 °F 46.8 °F 30.2 in ENE 2 mph 3 mph 71% 0 in 376 W/m2
08:44 56.7 °F 47.7 °F 30.2 in ENE 0.9 mph 2 mph 72% 0 in 392 W/m2
08:49 57 °F 47.7 °F 30.2 in Calm   2 mph 71% 0 in 404 W/m2
08:54 57.2 °F 47.5 °F 30.2 in East 2 mph 3 mph 70% 0 in 415 W/m2
08:59 57.7 °F 47.7 °F 30.2 in ENE 2 mph 3 mph 69% 0 in 429 W/m2
09:04 58.3 °F 48.6 °F 30.2 in NE 0.9 mph 3 mph 70% 0 in 438 W/m2
09:09 58.6 °F 48.2 °F 30.2 in NE 0.9 mph 4 mph 68% 0 in 452 W/m2
09:14 59.2 °F 48.6 °F 30.2 in ENE 5 mph 5 mph 68% 0 in 466 W/m2
09:19 59.4 °F 48.4 °F 30.2 in East 2 mph 5 mph 67% 0 in 476 W/m2
09:24 60.1 °F 49.5 °F 30.2 in ESE 0.9 mph 3 mph 68% 0 in 492 W/m2
09:29 61 °F 49.1 °F 30.2 in East 6 mph 6 mph 65% 0 in 504 W/m2
09:35 61.3 °F 48.6 °F 30.2 in East 2 mph 4 mph 63% 0 in 512 W/m2
09:40 61.9 °F 49.1 °F 30.2 in ENE 2 mph 3 mph 63% 0 in 527 W/m2
09:45 62.4 °F 48.7 °F 30.2 in ENE 2.9 mph 5 mph 61% 0 in 538 W/m2
09:50 63 °F 48.9 °F 30.2 in SE 0.9 mph 3 mph 60% 0 in 554 W/m2
09:55 63.1 °F 48.6 °F 30.2 in ESE 0.9 mph 2 mph 59% 0 in 564 W/m2
10:00 63.5 °F 48 °F 30.2 in NE 2 mph 3 mph 57% 0 in 577 W/m2
10:05 64 °F 48.9 °F 30.2 in ENE 0.9 mph 6 mph 58% 0 in 587 W/m2
10:10 64.2 °F 47.7 °F 30.2 in Calm   3 mph 55% 0 in 598 W/m2
10:15 64.4 °F 47.8 °F 30.2 in Calm   6 mph 55% 0 in 598 W/m2
10:20 64.8 °F 47.3 °F 30.2 in ENE 0.9 mph 2 mph 53% 0 in 113 W/m2
10:25 65.3 °F 47.3 °F 30.2 in East 2.9 mph 6 mph 52% 0 in 619 W/m2
10:30 65.8 °F 47.1 °F 30.2 in Calm   1 mph 51% 0 in 642 W/m2
10:35 66 °F 47.3 °F 30.2 in ESE 0.9 mph 4 mph 51% 0 in 650 W/m2
10:40 66.4 °F 47.7 °F 30.2 in East 2.9 mph 3 mph 51% 0 in 664 W/m2
10:45 66.9 °F 48.2 °F 30.2 in NNE 0.9 mph 2 mph 51% 0 in 671 W/m2
10:50 67.5 °F 48.2 °F 30.2 in ESE 0.9 mph 2 mph 50% 0 in 664 W/m2
10:55 67.8 °F 48.6 °F 30.2 in NNW 2.9 mph 3 mph 50% 0 in 689 W/m2
11:00 67.8 °F 48.6 °F 30.2 in North 2.9 mph 4 mph 50% 0 in 670 W/m2
11:05 67.8 °F 48 °F 30.2 in SW 2 mph 4 mph 49% 0 in 680 W/m2
11:10 67.8 °F 49.1 °F 30.2 in NW 4 mph 6 mph 51% 0 in 684 W/m2
11:15 67.6 °F 47.8 °F 30.2 in NNW 2.9 mph 7 mph 49% 0 in 705 W/m2
11:20 67.5 °F 48.2 °F 30.2 in WNW 6.9 mph 7 mph 50% 0 in 726 W/m2
11:25 67.5 °F 48.7 °F 30.2 in WNW 2.9 mph 3 mph 51% 0 in 731 W/m2
11:30 67.8 °F 49.1 °F 30.2 in WNW 2 mph 8 mph 51% 0 in 740 W/m2
11:35 67.8 °F 48.6 °F 30.2 in NNE 2 mph 3 mph 50% 0 in 740 W/m2
11:40 68 °F 49.3 °F 30.2 in NNW 2 mph 8 mph 51% 0 in 752 W/m2
11:45 68.2 °F 48.9 °F 30.2 in West 0.9 mph 6 mph 50% 0 in 761 W/m2
11:51 67.8 °F 48.6 °F 30.2 in NW 4.9 mph 6 mph 50% 0 in 768 W/m2
11:56 67.8 °F 48 °F 30.2 in WNW 2.9 mph 6 mph 49% 0 in 773 W/m2
12:01 68.2 °F 47.7 °F 30.2 in WNW 2.9 mph 7 mph 48% 0 in 780 W/m2
12:06 68.4 °F 47.8 °F 30.2 in WNW 4.9 mph 8 mph 48% 0 in 793 W/m2
12:11 68.4 °F 47.8 °F 30.2 in NW 4 mph 4 mph 48% 0 in 791 W/m2
12:16 68.4 °F 47.8 °F 30.2 in NW 2.9 mph 6 mph 48% 0 in 770 W/m2
12:21 68.5 °F 48 °F 30.2 in NW 4 mph 6 mph 48% 0 in 800 W/m2
12:26 68.7 °F 48.2 °F 30.2 in WNW 4.9 mph 6 mph 48% 0 in 758 W/m2
12:31 68.7 °F 47.7 °F 30.2 in NW 2 mph 4 mph 47% 0 in 812 W/m2
12:36 69.1 °F 49.1 °F 30.2 in NW 0.9 mph 5 mph 49% 0 in 819 W/m2
12:41 69.1 °F 48 °F 30.2 in WNW 6.9 mph 9 mph 47% 0 in 821 W/m2
12:46 68.7 °F 47.7 °F 30.2 in WNW 4.9 mph 10 mph 47% 0 in 803 W/m2
12:51 68.7 °F 48.2 °F 30.2 in WNW 4 mph 6 mph 48% 0 in 830 W/m2
12:56 68.7 °F 47.7 °F 30.2 in WSW 4 mph 9 mph 47% 0 in 710 W/m2
13:01 68.7 °F 47.1 °F 30.2 in WNW 8.1 mph 8 mph 46% 0 in 733 W/m2
13:07 68.5 °F 45.7 °F 30.2 in NW 2 mph 3 mph 44% 0 in 831 W/m2
13:12 68.7 °F 45.9 °F 30.2 in NW 2 mph 11 mph 44% 0 in 831 W/m2
13:17 68.7 °F 47.1 °F 30.2 in WNW 8.1 mph 8 mph 46% 0 in 830 W/m2
13:22 68.7 °F 46.6 °F 30.2 in West 6 mph 7 mph 45% 0 in 826 W/m2
13:27 69.3 °F 47.7 °F 30.2 in West 6.9 mph 7 mph 46% 0 in 837 W/m2
13:32 69.3 °F 46.9 °F 30.2 in WSW 2 mph 8 mph 45% 0 in 835 W/m2
13:37 69.4 °F 47.1 °F 30.2 in West 2 mph 6 mph 45% 0 in 816 W/m2
13:42 69.6 °F 47.8 °F 30.2 in WNW 2.9 mph 8 mph 46% 0 in 814 W/m2
13:47 69.8 °F 48 °F 30.2 in NNW 2 mph 11 mph 46% 0 in 830 W/m2
13:52 70.2 °F 48.4 °F 30.2 in West 6 mph 8 mph 46% 0 in 824 W/m2
13:57 70.2 °F 48.9 °F 30.2 in West 4 mph 11 mph 47% 0 in 831 W/m2
14:02 70.2 °F 48.9 °F 30.2 in WNW 2.9 mph 8 mph 47% 0 in 796 W/m2
14:07 70.3 °F 49.6 °F 30.2 in WNW 4 mph 9 mph 48% 0 in 824 W/m2
14:12 70.3 °F 49.1 °F 30.2 in WSW 2 mph 4 mph 47% 0 in 819 W/m2
14:17 70.3 °F 50.4 °F 30.2 in WNW 2.9 mph 8 mph 49% 0 in 796 W/m2
14:22 71.1 °F 49.8 °F 30.2 in NW 4 mph 9 mph 47% 0 in 703 W/m2
14:27 71.2 °F 49.5 °F 30.2 in WNW 6 mph 7 mph 46% 0 in 765 W/m2
14:32 70.5 °F 48.7 °F 30.2 in WNW 2.9 mph 7 mph 46% 0 in 840 W/m2
14:38 70.9 °F 49.1 °F 30.2 in NNE 0.9 mph 5 mph 46% 0 in 842 W/m2
14:43 71.2 °F 48.7 °F 30.2 in NW 2.9 mph 7 mph 45% 0 in 745 W/m2
14:48 71.8 °F 49.3 °F 30.2 in NNE 4.9 mph 10 mph 45% 0 in 643 W/m2
14:53 71.4 °F 50.2 °F 30.2 in NNE 0.9 mph 3 mph 47% 0 in 636 W/m2
14:58 71.2 °F 49.5 °F 30.2 in NW 4 mph 7 mph 46% 0 in 643 W/m2
15:03 71.2 °F 49.5 °F 30.2 in NNW 2 mph 4 mph 46% 0 in 621 W/m2
15:08 71.2 °F 50.5 °F 30.2 in NNW 0.9 mph 1 mph 48% 0 in 800 W/m2
15:13 71.8 °F 51.1 °F 30.2 in WNW 4.9 mph 5 mph 48% 0 in 759 W/m2
15:18 72 °F 51.3 °F 30.2 in West 6 mph 8 mph 48% 0 in 671 W/m2
15:23 71.4 °F 50.7 °F 30.2 in WSW 8.9 mph 9 mph 48% 0 in 654 W/m2
15:28 71.2 °F 50.5 °F 30.2 in West 2.9 mph 8 mph 48% 0 in 645 W/m2
15:33 71.4 °F 51.3 °F 30.2 in West 6.9 mph 9 mph 49% 0 in 598 W/m2
15:38 71.4 °F 51.3 °F 30.2 in West 6 mph 6 mph 49% 0 in 659 W/m2
15:43 71.8 °F 51.6 °F 30.2 in South 2 mph 9 mph 49% 0 in 622 W/m2
15:48 72 °F 50.7 °F 30.2 in South 2.9 mph 10 mph 47% 0 in 693 W/m2
15:53 71.8 °F 50.5 °F 30.2 in NW 2 mph 4 mph 47% 0 in 696 W/m2
15:58 72 °F 50 °F 30.2 in WSW 4.9 mph 8 mph 46% 0 in 649 W/m2
16:04 71.8 °F 49.3 °F 30.2 in West 2.9 mph 5 mph 45% 0 in 673 W/m2
16:09 72 °F 50 °F 30.2 in West 4 mph 4 mph 46% 0 in 650 W/m2
16:14 72.1 °F 50.7 °F 30.2 in WSW 8.1 mph 9 mph 47% 0 in 675 W/m2
16:19 72.3 °F 49.8 °F 30.2 in West 10.1 mph 10 mph 45% 0 in 645 W/m2
16:24 72.3 °F 49.8 °F 30.2 in WNW 2 mph 8 mph 45% 0 in 650 W/m2
16:29 72.3 °F 50.4 °F 30.2 in West 2.9 mph 6 mph 46% 0 in 638 W/m2
16:34 72.3 °F 50.9 °F 30.2 in WNW 8.1 mph 8 mph 47% 0 in 628 W/m2
16:39 72.7 °F 48.9 °F 30.2 in WSW 4.9 mph 10 mph 43% 0 in 610 W/m2
16:44 72.3 °F 48.6 °F 30.2 in West 2 mph 10 mph 43% 0 in 515 W/m2
16:49 72.7 °F 48.9 °F 30.2 in West 6 mph 6 mph 43% 0 in 582 W/m2
16:54 72.7 °F 48.9 °F 30.2 in NW 2.9 mph 9 mph 43% 0 in 561 W/m2
16:59 72.7 °F 49.5 °F 30.2 in WNW 4.9 mph 8 mph 44% 0 in 557 W/m2
17:04 72.3 °F 48 °F 30.2 in WSW 8.9 mph 10 mph 42% 0 in 555 W/m2
17:09 72.5 °F 47.5 °F 30.2 in WNW 12.1 mph 12 mph 41% 0 in 554 W/m2
17:14 72.7 °F 47.7 °F 30.2 in SW 2.9 mph 7 mph 41% 0 in 541 W/m2
17:19 72.7 °F 45.7 °F 30.2 in WNW 4 mph 12 mph 38% 0 in 529 W/m2
17:24 72.9 °F 46.4 °F 30.2 in NW 2 mph 9 mph 39% 0 in 513 W/m2
17:29 73 °F 46.6 °F 30.2 in WNW 8.9 mph 11 mph 39% 0 in 503 W/m2
17:34 73.2 °F 47.5 °F 30.2 in WSW 8.9 mph 12 mph 40% 0 in 492 W/m2
17:39 73 °F 48 °F 30.2 in WNW 6.9 mph 9 mph 41% 0 in 478 W/m2
17:44 72.5 °F 47.5 °F 30.2 in NW 2 mph 8 mph 41% 0 in 466 W/m2
17:49 72.7 °F 46.9 °F 30.2 in West 6.9 mph 12 mph 40% 0 in 455 W/m2
17:54 72.7 °F 46.9 °F 30.2 in NW 4 mph 10 mph 40% 0 in 441 W/m2
17:59 72.7 °F 46.9 °F 30.2 in WNW 4 mph 7 mph 40% 0 in 427 W/m2
18:04 72.7 °F 46.9 °F 30.2 in WNW 6.9 mph 9 mph 40% 0 in 418 W/m2
18:09 72.9 °F 46.4 °F 30.2 in West 6 mph 10 mph 39% 0 in 403 W/m2
18:14 73 °F 46.6 °F 30.2 in WSW 4 mph 8 mph 39% 0 in 390 W/m2
18:19 73 °F 46.6 °F 30.2 in West 6 mph 8 mph 39% 0 in 378 W/m2
18:24 72.9 °F 46.4 °F 30.2 in WNW 2.9 mph 6 mph 39% 0 in 366 W/m2
18:29 73.2 °F 46 °F 30.2 in NNW 4.9 mph 8 mph 38% 0 in 352 W/m2
18:34 73.2 °F 46.8 °F 30.2 in NNW 2.9 mph 6 mph 39% 0 in 341 W/m2
18:39 73 °F 45.1 °F 30.2 in NNW 2 mph 7 mph 37% 0 in 323 W/m2
18:44 73 °F 45.1 °F 30.2 in WSW 6.9 mph 9 mph 37% 0 in 315 W/m2
18:49 72.9 °F 45.7 °F 30.2 in West 2.9 mph 6 mph 38% 0 in 302 W/m2
18:54 72.7 °F 45.7 °F 30.2 in WNW 4 mph 9 mph 38% 0 in 288 W/m2
18:59 72.7 °F 46.2 °F 30.2 in NW 4.9 mph 7 mph 39% 0 in 276 W/m2
19:04 72.7 °F 46.2 °F 30.2 in West 4 mph 8 mph 39% 0 in 264 W/m2
19:09 72.3 °F 46 °F 30.2 in West 2 mph 4 mph 39% 0 in 250 W/m2
19:14 72.5 °F 46.8 °F 30.2 in WSW 2.9 mph 6 mph 40% 0 in 237 W/m2
19:19 72.5 °F 47.5 °F 30.2 in WSW 4 mph 5 mph 41% 0 in 223 W/m2
19:24 72.3 °F 47.3 °F 30.2 in West 2.9 mph 4 mph 41% 0 in 207 W/m2
19:29 72.1 °F 47.8 °F 30.2 in WNW 0.9 mph 6 mph 42% 0 in 193 W/m2
19:34 72.1 °F 47.8 °F 30.2 in WNW 2.9 mph 5 mph 42% 0 in 181 W/m2
19:39 72.1 °F 48.4 °F 30.2 in WSW 4 mph 7 mph 43% 0 in 163 W/m2
19:44 72 °F 48.9 °F 30.2 in West 2.9 mph 5 mph 44% 0 in 149 W/m2
19:49 71.8 °F 48.7 °F 30.2 in West 4 mph 6 mph 44% 0 in 135 W/m2
19:54 71.6 °F 49.1 °F 30.2 in WNW 2.9 mph 4 mph 45% 0 in 116 W/m2
19:59 71.4 °F 49.6 °F 30.2 in WNW 2.9 mph 8 mph 46% 0 in 105 W/m2
20:04 71.2 °F 50 °F 30.2 in SW 4 mph 5 mph 47% 0 in 97 W/m2
20:09 71.1 °F 49.8 °F 30.2 in WSW 2.9 mph 8 mph 47% 0 in 83 W/m2
20:14 70.9 °F 50.2 °F 30.2 in West 2 mph 3 mph 48% 0 in 74 W/m2
20:19 70.9 °F 50.7 °F 30.2 in NW 2.9 mph 4 mph 49% 0 in 63 W/m2
20:24 70.5 °F 50.4 °F 30.2 in WNW 2.9 mph 4 mph 49% 0 in 53 W/m2
20:29 70.2 °F 50.7 °F 30.2 in West 6 mph 6 mph 50% 0 in 44 W/m2
20:34 69.8 °F 50.9 °F 30.2 in WNW 2.9 mph 6 mph 51% 0 in 35 W/m2
20:39 69.4 °F 51.1 °F 30.2 in WSW 2 mph 5 mph 52% 0 in 26 W/m2
20:44 69.1 °F 50.7 °F 30.2 in West 6.9 mph 7 mph 52% 0 in 19 W/m2
20:49 68.5 °F 50.7 °F 30.2 in West 2 mph 3 mph 53% 0 in 12 W/m2
20:54 68.2 °F 50.9 °F 30.2 in SW 2.9 mph 7 mph 54% 0 in 9 W/m2
20:59 67.6 °F 50.4 °F 30.2 in WSW 2.9 mph 6 mph 54% 0 in 7 W/m2
21:04 67.5 °F 50.7 °F 30.2 in West 2.9 mph 5 mph 55% 0 in 7 W/m2
21:09 67.1 °F 50.9 °F 30.2 in West 2 mph 6 mph 56% 0 in 5 W/m2
21:14 66.9 °F 50.7 °F 30.2 in West 8.1 mph 11 mph 56% 0 in 0 W/m2
21:19 66.7 °F 50.5 °F 30.2 in WNW 2.9 mph 7 mph 56% 0 in 0 W/m2
21:24 66.6 °F 50.9 °F 30.2 in WSW 4 mph 6 mph 57% 0 in 0 W/m2
21:29 66.6 °F 50.9 °F 30.2 in WSW 4 mph 11 mph 57% 0 in 0 W/m2
21:34 66.4 °F 50.7 °F 30.2 in West 6.9 mph 11 mph 57% 0 in 0 W/m2
21:39 66.2 °F 50.9 °F 30.2 in West 6.9 mph 7 mph 58% 0 in 0 W/m2
21:44 66 °F 51.3 °F 30.2 in West 2.9 mph 7 mph 59% 0 in 0 W/m2
21:49 66 °F 51.3 °F 30.2 in West 4 mph 11 mph 59% 0 in 0 W/m2
21:54 66 °F 51.8 °F 30.2 in WSW 4 mph 12 mph 60% 0 in 0 W/m2
21:59 66 °F 52.2 °F 30.2 in West 4 mph 6 mph 61% 0 in 0 W/m2
22:05 66 °F 52.2 °F 30.2 in West 6.9 mph 12 mph 61% 0 in 0 W/m2
22:10 66 °F 52.7 °F 30.2 in West 4 mph 8 mph 62% 0 in 0 W/m2
22:15 65.8 °F 52.5 °F 30.2 in SW 2 mph 7 mph 62% 0 in 0 W/m2
22:20 65.7 °F 52.7 °F 30.2 in WNW 4.9 mph 9 mph 63% 0 in 0 W/m2
22:25 65.7 °F 52.7 °F 30.2 in West 6 mph 10 mph 63% 0 in 0 W/m2
22:30 65.7 °F 52.7 °F 30.2 in WNW 2 mph 8 mph 63% 0 in 0 W/m2
22:35 65.5 °F 53.1 °F 30.2 in WNW 2 mph 7 mph 64% 0 in 0 W/m2
22:40 65.1 °F 52.7 °F 30.2 in WSW 4.9 mph 8 mph 64% 0 in 0 W/m2
22:45 64.9 °F 52.9 °F 30.2 in WSW 4.9 mph 7 mph 65% 0 in 0 W/m2
22:50 64.8 °F 52.7 °F 30.2 in WNW 2.9 mph 6 mph 65% 0 in 0 W/m2
22:55 64.6 °F 52.9 °F 30.2 in WNW 2 mph 7 mph 66% 0 in 0 W/m2
23:00 64.2 °F 52.7 °F 30.2 in West 2 mph 6 mph 66% 0 in 0 W/m2
23:05 64 °F 52.9 °F 30.2 in WNW 2 mph 6 mph 67% 0 in 0 W/m2
23:10 63.7 °F 52.5 °F 30.2 in West 2 mph 3 mph 67% 0 in 0 W/m2
23:15 63.3 °F 52.5 °F 30.2 in West 2 mph 6 mph 68% 0 in 0 W/m2
23:20 63 °F 52.2 °F 30.2 in West 2.9 mph 3 mph 68% 0 in 0 W/m2
23:25 62.8 °F 52.5 °F 30.2 in West 2.9 mph 6 mph 69% 0 in 0 W/m2
23:30 62.4 °F 52.5 °F 30.2 in WNW 2.9 mph 5 mph 70% 0 in 0 W/m2
23:36 62.4 °F 52.5 °F 30.2 in West 2 mph 3 mph 70% 0 in 0 W/m2
23:41 62.6 °F 52.3 °F 30.2 in WNW 2.9 mph 3 mph 69% 0 in 0 W/m2
23:46 62.6 °F 52.3 °F 30.2 in WNW 2 mph 4 mph 69% 0 in 0 W/m2
23:51 62.6 °F 52 °F 30.2 in WNW 0.9 mph 4 mph 68% 0 in 0 W/m2
23:56 62.4 °F 51.8 °F 30.2 in West 0.9 mph 3 mph 68% 0 in 0 W/m2
Juneau County Weather
Compliments of Weather Underground - 4 mb